Amateur Radio Satellites - All Passes

Search period start: 23 May 2013 18:53
Search period end: 24 May 2013 18:53
Location: Cluny, 50.9333°N, 112.8167°W

Satellite Date Start Highest point End Downlink Frequencies (MHz)
Time Altitude Azimuth
HO-68 23 May 19:03:36 19:06:23 13° 34° (NE) 19:09:10 435.675 MHz FM
Hamsat 23 May 19:04:37 19:08:38 43° 69° (ENE) 19:12:42 145.90 MHz
SO-67 23 May 19:09:45 19:12:03 16° 62° (ENE) 19:14:22 435.3500 MHz FM
RS-15 23 May 19:18:16 19:30:05 65° 322° (NW) 19:41:23 29.354 - 29.394 USB, Beacon 29.352 USB
STRAND 1 23 May 19:33:58 19:38:49 40° 97° (E) 19:43:38 ?
UOSAT-12 23 May 19:47:53 19:52:28 60° 44° (NE) 19:57:01 437.025 FM, 437.400 FM
AO-7 23 May 19:58:21 20:01:48 13° 280° (W) 20:05:16 29.400 - 29.500 MHz
JAS-2 23 May 20:25:22 20:31:25 26° 51° (NE) 20:37:22 435.800 - 435.900 CW/SSB, 435.910 FM
JAS-1B 23 May 20:40:01 20:48:58 69° 257° (WSW) 20:56:31 435.800 - 435.900 CW/SSB
Hamsat 23 May 20:41:32 20:44:55 23° 268° (W) 20:48:21 145.90 MHz
SO-67 23 May 20:41:43 20:45:11 49° 261° (W) 20:48:42 435.3500 MHz FM
HO-68 23 May 20:45:45 20:52:16 40° 58° (ENE) 20:58:49 435.675 MHz FM
Oscar 11 23 May 21:06:32 21:09:36 19° 59° (ENE) 21:12:41 145.825 FM, Beacon 2401.500 USB
STRAND 1 23 May 21:13:20 21:18:00 36° 297° (WNW) 21:22:39 ?
UOSAT-12 23 May 21:28:34 21:32:21 25° 243° (WSW) 21:36:07 437.025 FM, 437.400 FM
RS-15 23 May 21:34:08 21:44:57 41° 354° (N) 21:55:20 29.354 - 29.394 USB, Beacon 29.352 USB
OPAL 23 May 22:00:55 22:05:45 42° 63° (ENE) 22:10:34 ?
JAS-2 23 May 22:07:38 22:15:28 82° 72° (ENE) 22:23:15 435.800 - 435.900 CW/SSB, 435.910 FM
KITSAT 1 23 May 22:18:44 22:23:55 19° 101° (E) 22:29:07 435.175 FM
HO-68 23 May 22:32:52 22:39:49 55° 259° (WSW) 22:46:50 435.675 MHz FM
JAS-1B 23 May 22:35:27 22:40:39 17° 276° (W) 22:45:28 435.800 - 435.900 CW/SSB
Oscar 11 23 May 22:41:10 22:45:27 62° 259° (WSW) 22:49:46 145.825 FM, Beacon 2401.500 USB
OPAL 23 May 23:40:00 23:44:44 35° 261° (W) 23:49:26 ?
RS-15 23 May 23:49:14 00:00:18 52° 27° (NNE) 00:10:56 29.354 - 29.394 USB, Beacon 29.352 USB
JAS-2 23 May 23:54:45 00:01:13 28° 272° (W) 00:07:41 435.800 - 435.900 CW/SSB, 435.910 FM
AO-40 24 May 00:06:51 05:05:08 30° 165° (SSE) 08:26:57 Beacon 2401.320
KITSAT 1 24 May 00:09:57 00:17:58 73° 123° (ESE) 00:26:03 435.175 FM
HO-68 24 May 00:27:33 00:29:13 11° 280° (W) 00:30:53 435.675 MHz FM
MaSat-1 24 May 00:53:55 00:56:07 12° 101° (E) 00:58:13 437.345 MHz
RS-15 24 May 02:02:20 02:13:30 75° 236° (SW) 02:24:18 29.354 - 29.394 USB, Beacon 29.352 USB
KITSAT 1 24 May 02:06:19 02:13:58 44° 327° (NNW) 02:21:42 435.175 FM
Oscar 16 24 May 02:10:19 02:13:48 18° 88° (E) 02:17:16 437.025 USB, Beacon 2401.1428
AO-27 24 May 02:22:28 02:25:52 17° 88° (E) 02:29:14 436.795 MHz FM
ITAMSAT 1 24 May 02:28:36 02:32:15 19° 89° (E) 02:35:53 435.822 SSB
MaSat-1 24 May 02:30:57 02:37:34 57° 117° (ESE) 02:42:53 437.345 MHz
AO-Echo 24 May 03:03:43 03:05:56 13° 86° (E) 03:08:09 ?
Uribyol 2 24 May 03:08:32 03:13:29 40° 97° (E) 03:18:23 436.500 FM
Oscar 19 24 May 03:09:00 03:14:00 46° 98° (E) 03:18:56 437.125 CW, 437.150 USB
ISS 24 May 03:39:45 03:42:37 27° 147° (SSE) 03:45:31 145.800 FM
Oscar 16 24 May 03:48:35 03:53:48 77° 288° (WNW) 03:58:57 437.025 USB, Beacon 2401.1428
AO-27 24 May 04:00:48 04:06:04 82° 287° (WNW) 04:11:18 436.795 MHz FM
KITSAT 1 24 May 04:04:52 04:11:38 28° 356° (N) 04:18:25 435.175 FM
ITAMSAT 1 24 May 04:07:07 04:12:21 75° 288° (WNW) 04:17:34 435.822 SSB
TMSAT-1 24 May 04:11:38 04:14:44 16° 86° (E) 04:17:49 436.925 FM
MaSat-1 24 May 04:14:02 04:19:54 36° 312° (NW) 04:24:38 437.345 MHz
RS-15 24 May 04:16:09 04:23:48 22° 261° (W) 04:31:22 29.354 - 29.394 USB, Beacon 29.352 USB
Gurwin Techsat 1B 24 May 04:33:14 04:38:00 32° 94° (E) 04:42:44 435.225 FM
Uosat F 24 May 04:34:48 04:39:28 37° 97° (E) 04:44:06 435.120 FM
AO-Echo 24 May 04:40:41 04:45:27 88° 105° (ESE) 04:50:17 ?
Uribyol 2 24 May 04:48:11 04:52:57 36° 297° (WNW) 04:57:41 436.500 FM
Oscar 19 24 May 04:48:41 04:53:13 32° 298° (WNW) 04:57:44 437.125 CW, 437.150 USB
ISS 24 May 05:15:44 05:19:04 85° 166° (SSE) 05:22:26 145.800 FM
STRAND 1 24 May 05:18:12 05:21:36 18° 54° (NE) 05:25:00 ?
Saudisat 1A 24 May 05:26:49 05:29:36 16° 112° (ESE) 05:32:23 436.775 MHz
Oscar 16 24 May 05:29:23 05:32:23 16° 308° (NW) 05:35:22 437.025 USB, Beacon 2401.1428
Oscar 10/S400 24 May 05:35:28 09:44:37 56° 213° (SSW) 15:44:32 145.825 - 145.975 CW/USB, Beacon 145.810 USB
AO-27 24 May 05:41:38 05:44:51 17° 307° (NW) 05:48:04 436.795 MHz FM
ITAMSAT 1 24 May 05:48:05 05:51:04 16° 308° (NW) 05:54:02 435.822 SSB
TMSAT-1 24 May 05:50:05 05:55:27 89° 106° (ESE) 06:00:46 436.925 FM
AO-7 24 May 05:54:30 06:02:12 39° 96° (E) 06:09:51 29.400 - 29.500 MHz
MaSat-1 24 May 06:01:05 06:03:16 12° 333° (NNW) 06:05:17 437.345 MHz
KITSAT 1 24 May 06:02:10 06:09:33 36° 25° (NNE) 06:16:56 435.175 FM
Gurwin Techsat 1B 24 May 06:13:06 06:18:09 45° 294° (WNW) 06:23:11 435.225 FM
Uosat F 24 May 06:13:41 06:18:18 37° 296° (WNW) 06:22:53 435.120 FM
AO-Echo 24 May 06:20:48 06:23:40 16° 305° (NW) 06:26:33 ?
PCSat 24 May 06:48:03 06:50:40 14° 103° (ESE) 06:53:19 145.825 MHz
ISS 24 May 06:52:31 06:55:52 80° 7° (N) 06:59:14 145.800 FM
STRAND 1 24 May 06:55:04 07:00:10 87° 254° (WSW) 07:05:20 ?
Saudisat 1A 24 May 07:04:04 07:08:41 90° 134° (SE) 07:13:20 436.775 MHz
Sapphire 24 May 07:19:10 07:23:21 23° 109° (ESE) 07:27:33 437.095 MHz 1200 baud AX-25 AFSK
TMSAT-1 24 May 07:31:09 07:34:44 19° 306° (NW) 07:38:18 436.925 FM
AO-7 24 May 07:47:13 07:55:26 63° 298° (WNW) 08:03:38 29.400 - 29.500 MHz
KITSAT 1 24 May 07:57:54 08:06:06 84° 51° (NE) 08:14:16 435.175 FM
SO-67 24 May 08:06:06 08:06:29 10° 87° (E) 08:06:53 435.3500 MHz FM
JAS-1B 24 May 08:21:19 08:26:08 24° 89° (E) 08:30:39 435.800 - 435.900 CW/SSB
Hamsat 24 May 08:21:52 08:26:05 46° 98° (E) 08:30:18 145.90 MHz
PCSat 24 May 08:27:47 08:33:11 74° 123° (ESE) 08:38:37 145.825 MHz
ISS 24 May 08:29:17 08:32:30 44° 206° (SSW) 08:35:43 145.800 FM
STRAND 1 24 May 08:37:27 08:40:10 14° 274° (W) 08:42:53 ?
Saudisat 1A 24 May 08:45:08 08:48:59 25° 333° (NNW) 08:52:50 436.775 MHz
SO-50 24 May 08:53:11 08:57:14 28° 118° (ESE) 09:01:15 436.795 FM
Sapphire 24 May 09:00:53 09:06:17 73° 309° (NW) 09:11:45 437.095 MHz 1200 baud AX-25 AFSK
MaSat-1 24 May 09:30:15 09:31:56 12° 26° (NNE) 09:33:29 437.345 MHz
SO-67 24 May 09:36:52 09:40:28 77° 285° (WNW) 09:44:03 435.3500 MHz FM
AO-7 24 May 09:40:56 09:46:46 22° 321° (NW) 09:52:36 29.400 - 29.500 MHz
KITSAT 1 24 May 09:54:03 10:00:43 29° 253° (WSW) 10:07:23 435.175 FM
HO-68 24 May 09:55:19 10:00:54 24° 90° (E) 10:06:28 435.675 MHz FM
Hamsat 24 May 09:58:26 10:01:57 24° 297° (WNW) 10:05:28 145.90 MHz
ISS 24 May 10:07:40 10:08:34 11° 224° (SW) 10:09:28 145.800 FM
JAS-1B 24 May 10:11:22 10:17:33 63° 292° (WNW) 10:23:09 435.800 - 435.900 CW/SSB
PCSat 24 May 10:12:22 10:17:08 30° 325° (NW) 10:21:56 145.825 MHz
Oscar 11 24 May 10:24:57 10:27:56 18° 90° (E) 10:30:54 145.825 FM, Beacon 2401.500 USB
Saudisat 1A 24 May 10:27:30 10:30:12 15° 357° (N) 10:32:53 436.775 MHz
SO-50 24 May 10:32:56 10:37:39 58° 317° (NW) 10:42:17 436.795 FM
Sapphire 24 May 10:46:22 10:50:40 23° 332° (NNW) 10:54:58 437.095 MHz 1200 baud AX-25 AFSK
JAS-2 24 May 10:58:04 11:04:53 49° 96° (E) 11:10:52 435.800 - 435.900 CW/SSB, 435.910 FM
MaSat-1 24 May 11:11:20 11:15:03 65° 55° (NE) 11:17:59 437.345 MHz
HO-68 24 May 11:42:14 11:49:26 83° 290° (WNW) 11:56:37 435.675 MHz FM
UOSAT-12 24 May 11:44:25 11:48:19 29° 118° (ESE) 11:52:15 437.025 FM, 437.400 FM
OPAL 24 May 11:44:27 11:49:11 40° 100° (E) 11:53:50 ?
PCSat 24 May 11:59:10 12:02:21 15° 350° (N) 12:05:31 145.825 MHz
Oscar 11 24 May 12:00:15 12:04:34 61° 289° (WNW) 12:08:53 145.825 FM, Beacon 2401.500 USB
JAS-1B 24 May 12:03:40 12:06:53 15° 317° (NW) 12:09:56 435.800 - 435.900 CW/SSB
Saudisat 1A 24 May 12:08:05 12:11:33 20° 21° (NNE) 12:14:58 436.775 MHz
SO-50 24 May 12:15:40 12:19:12 20° 339° (NNW) 12:22:41 436.795 FM
Sapphire 24 May 12:33:11 12:36:08 15° 358° (N) 12:39:05 437.095 MHz 1200 baud AX-25 AFSK
JAS-2 24 May 12:43:17 12:49:50 41° 300° (WNW) 12:55:41 435.800 - 435.900 CW/SSB, 435.910 FM
Oscar 19 24 May 12:53:39 12:57:23 20° 56° (NE) 13:01:08 437.125 CW, 437.150 USB
Uribyol 2 24 May 12:54:21 12:57:54 19° 55° (NE) 13:01:28 436.500 FM
OPAL 24 May 13:23:31 13:28:03 35° 300° (WNW) 13:32:32 ?
AO-7 24 May 13:23:47 13:25:29 11° 16° (NNE) 13:27:11 29.400 - 29.500 MHz
UOSAT-12 24 May 13:23:51 13:28:18 53° 318° (NW) 13:32:47 437.025 FM, 437.400 FM
HO-68 24 May 13:30:50 13:36:15 24° 312° (NW) 13:41:40 435.675 MHz FM
Oscar 16 24 May 13:31:51 13:36:44 42° 66° (ENE) 13:41:38 437.025 USB, Beacon 2401.1428
Oscar 11 24 May 13:39:26 13:39:57 10° 308° (NW) 13:40:27 145.825 FM, Beacon 2401.500 USB
PCSat 24 May 13:44:26 13:48:00 17° 17° (NNE) 13:51:34 145.825 MHz
AO-27 24 May 13:45:14 13:50:05 42° 65° (ENE) 13:54:58 436.795 MHz FM
Saudisat 1A 24 May 13:47:35 13:52:09 60° 43° (NE) 13:56:37 436.775 MHz
ITAMSAT 1 24 May 13:51:19 13:56:14 46° 66° (ENE) 14:01:11 435.822 SSB
SO-50 24 May 13:58:43 14:01:30 15° 4° (N) 14:04:15 436.795 FM
Uosat F 24 May 14:17:00 14:20:01 16° 53° (NE) 14:23:03 435.120 FM
Sapphire 24 May 14:17:36 14:21:41 21° 24° (NNE) 14:25:45 437.095 MHz 1200 baud AX-25 AFSK
AO-Echo 24 May 14:21:06 14:25:14 30° 63° (ENE) 14:29:19 ?
Gurwin Techsat 1B 24 May 14:22:19 14:25:29 16° 52° (NE) 14:28:39 435.225 FM
JAS-2 24 May 14:30:24 14:32:56 12° 323° (NW) 14:35:23 435.800 - 435.900 CW/SSB, 435.910 FM
Oscar 19 24 May 14:30:59 14:36:12 79° 256° (WSW) 14:41:27 437.125 CW, 437.150 USB
Uribyol 2 24 May 14:31:35 14:36:47 86° 254° (WSW) 14:42:02 436.500 FM
UOSAT-12 24 May 15:06:10 15:09:27 19° 341° (NNW) 15:12:45 437.025 FM, 437.400 FM
AO-7 24 May 15:09:02 15:15:24 26° 43° (NE) 15:21:47 29.400 - 29.500 MHz
Oscar 16 24 May 15:11:32 15:16:13 33° 265° (W) 15:20:56 437.025 USB, Beacon 2401.1428
AO-27 24 May 15:25:03 15:29:43 34° 265° (W) 15:34:26 436.795 MHz FM
PCSat 24 May 15:27:45 15:32:55 41° 41° (NE) 15:38:03 145.825 MHz
Saudisat 1A 24 May 15:27:49 15:31:33 25° 244° (WSW) 15:35:12 436.775 MHz
ITAMSAT 1 24 May 15:31:22 15:35:56 31° 266° (W) 15:40:32 435.822 SSB
TMSAT-1 24 May 15:36:53 15:41:45 38° 64° (ENE) 15:46:38 436.925 FM
SO-50 24 May 15:39:41 15:43:37 27° 29° (NNE) 15:47:29 436.795 FM
Uosat F 24 May 15:53:08 15:58:08 84° 74° (ENE) 16:03:11 435.120 FM
Gurwin Techsat 1B 24 May 15:59:22 16:04:40 78° 72° (ENE) 16:10:00 435.225 FM
AO-Echo 24 May 15:59:22 16:03:56 42° 262° (W) 16:08:26 ?
Sapphire 24 May 16:00:49 16:06:14 61° 48° (NE) 16:11:36 437.095 MHz 1200 baud AX-25 AFSK
Oscar 19 24 May 16:14:04 16:16:26 13° 275° (W) 16:18:49 437.125 CW, 437.150 USB
Uribyol 2 24 May 16:14:20 16:17:05 14° 274° (W) 16:19:51 436.500 FM
RS-15 24 May 16:30:59 16:41:57 45° 112° (ESE) 16:52:28 29.354 - 29.394 USB, Beacon 29.352 USB
UOSAT-12 24 May 16:48:35 16:51:18 15° 6° (N) 16:54:01 437.025 FM, 437.400 FM
AO-7 24 May 16:58:46 17:07:02 76° 66° (ENE) 17:15:23 29.400 - 29.500 MHz
PCSat 24 May 17:11:16 17:16:28 47° 243° (WSW) 17:21:38 145.825 MHz
TMSAT-1 24 May 17:16:47 17:21:42 38° 264° (W) 17:26:40 436.925 FM
SO-50 24 May 17:20:09 17:24:46 80° 231° (SW) 17:29:16 436.795 FM
JAS-1B 24 May 17:25:15 17:28:34 13° 41° (NE) 17:31:40 435.800 - 435.900 CW/SSB
Uosat F 24 May 17:34:40 17:37:38 16° 272° (W) 17:40:37 435.120 FM
Gurwin Techsat 1B 24 May 17:41:40 17:45:17 18° 272° (W) 17:48:56 435.225 FM
Sapphire 24 May 17:44:44 17:49:21 29° 248° (WSW) 17:53:57 437.095 MHz 1200 baud AX-25 AFSK
UOSAT-12 24 May 18:28:58 18:32:56 28° 30° (NNE) 18:36:54 437.025 FM, 437.400 FM
HO-68 24 May 18:48:35 18:49:56 11° 31° (NNE) 18:51:17 435.675 MHz FM

Developed and maintained by Chris Peat, Heavens-Above GmbH. Please read the updated FAQ before sending e-mail. Imprint. DLR
